Stuart, FL

4:09 PM EST on December 11, 2017 (GMT -0500)
Witham

Weather History for KSUA - September, 2012

Change the Weather History Date:

Wednesday, September 19, 2012

  Actual Average Record
Temperature  
Mean Temperature 81 °F -  
Max Temperature 91 °F 88 °F 96 °F (1987)
Min Temperature 71 °F 73 °F 68 °F (1981)
Cooling Degree Days 16    
Growing Degree Days 31 (Base 50)    
Moisture  
Dew Point 72 °F    
Average Humidity 83    
Maximum Humidity 94    
Minimum Humidity 40    
Precipitation  
Precipitation 0.99 in - - ()
Sea Level Pressure  
Sea Level Pressure 30.01 in    
Wind  
Wind Speed 6 mph (South)    
Max Wind Speed 15 mph    
Max Gust Speed 25 mph    
Visibility 9 miles    
Events Rain , Thunderstorm    
Averages and records for this station are not official NWS values.
T = Trace of Precipitation, MM = Missing Value Source: NWS Daily Summary

Daily Weather History Graph

Daily Weather History Graph

Search for Another Location

Airport or City:

Trip Planner

Search our weather history database for the weather conditions in past years. The results will help you decide how hot, cold, wet, or windy it might be!

Date:

Astronomy

Sep. 19, 2012 Rise Set
Actual Time 7:08 AM EDT 7:20 PM EDT
Civil Twilight 6:45 AM EDT 7:43 PM EDT
Nautical Twilight 6:17 AM EDT 8:10 PM EDT
Astronomical Twilight 5:50 AM EDT 8:37 PM EDT
Moon 10:49 AM EDT (9/19) 9:57 PM EDT (9/19)
Length of Visible Light 12h 58m
Length of Day
12h 11m
Waxing Crescent, 17% of the Moon is Illuminated
Sep 19
Waxing Crescent
Sep 22
First Quarter
Sep 29
Full
Oct 8
Last Quarter
Oct 15
New

Hourly Weather History & Observations

Time (EDT) Temp. Heat Index Dew Point Humidity Pressure Visibility Wind Dir Wind Speed Gust Speed Precip Events Conditions
12:15 AM 75.2 °F - 73.4 °F 94% 30.02 in 10.0 mi SSE 3.5 mph - N/A   Scattered Clouds
12:35 AM 75.2 °F - 73.4 °F 94% 30.01 in 10.0 mi SSE 5.8 mph - N/A   Clear
12:55 AM 75.2 °F - 73.4 °F 94% 30.00 in 10.0 mi SSE 8.1 mph - N/A   Clear
1:15 AM 75.2 °F - 73.4 °F 94% 29.99 in 10.0 mi SE 10.4 mph - N/A   Clear
1:35 AM 75.2 °F - 73.4 °F 94% 29.98 in 10.0 mi SSE 8.1 mph - N/A   Clear
1:55 AM 75.2 °F - 73.4 °F 94% 29.97 in 10.0 mi South 6.9 mph - N/A   Clear
2:15 AM 75.2 °F - 73.4 °F 94% 29.96 in 10.0 mi South 5.8 mph - N/A   Clear
2:35 AM 75.2 °F - 71.6 °F 89% 29.96 in 10.0 mi South 3.5 mph - N/A   Clear
2:55 AM 75.2 °F - 71.6 °F 89% 29.96 in 10.0 mi Calm Calm - N/A   Clear
3:15 AM 75.2 °F - 71.6 °F 89% 29.95 in 10.0 mi West 3.5 mph - N/A   Clear
3:35 AM 75.2 °F - 71.6 °F 89% 29.96 in 10.0 mi West 6.9 mph - N/A   Clear
3:55 AM 75.2 °F - 71.6 °F 89% 29.97 in 10.0 mi SW 4.6 mph - N/A   Clear
4:15 AM 75.2 °F - 71.6 °F 89% 29.97 in 10.0 mi SW 3.5 mph - N/A   Clear
4:35 AM 75.2 °F - 71.6 °F 89% 29.97 in 10.0 mi SSW 3.5 mph - N/A   Clear
4:55 AM 75.2 °F - 71.6 °F 89% 29.97 in 10.0 mi Calm Calm - N/A   Clear
5:15 AM 75.2 °F - 71.6 °F 89% 29.97 in 10.0 mi SSW 3.5 mph - N/A   Clear
5:55 AM 75.2 °F - 71.6 °F 89% 29.97 in 10.0 mi SSW 3.5 mph - N/A   Clear
6:15 AM 75.2 °F - 71.6 °F 89% 29.97 in 10.0 mi SSW 3.5 mph - N/A   Clear
7:47 AM 77.0 °F - 73.4 °F 89% 29.99 in 10.0 mi SW 4.6 mph - N/A   Mostly Cloudy
8:47 AM 80.6 °F 86.2 °F 75.2 °F 84% 30.00 in 10.0 mi WSW 6.9 mph - N/A   Mostly Cloudy
9:47 AM 82.4 °F 89.5 °F 75.2 °F 79% 30.00 in 10.0 mi WSW 8.1 mph - N/A   Mostly Cloudy
10:47 AM 84.2 °F 90.9 °F 73.4 °F 70% 30.02 in 10.0 mi WSW 9.2 mph - N/A   Mostly Cloudy
11:47 AM 86.0 °F 91.8 °F 71.6 °F 62% 30.03 in 10.0 mi West 9.2 mph - N/A   Mostly Cloudy
1:47 PM 87.8 °F 91.4 °F 68.0 °F 52% 30.01 in 10.0 mi NNW 4.6 mph - N/A   Mostly Cloudy
2:47 PM 89.6 °F 92.2 °F 66.2 °F 46% 29.99 in 10.0 mi West 6.9 mph - N/A   Mostly Cloudy
3:47 PM 91.4 °F 93.2 °F 64.4 °F 41% 29.98 in 10.0 mi West 8.1 mph - N/A   Mostly Cloudy
4:47 PM 89.6 °F 90.1 °F 62.6 °F 40% 29.98 in 10.0 mi SW 6.9 mph - N/A   Mostly Cloudy
5:47 PM 86.0 °F 90.4 °F 69.8 °F 58% 29.98 in 10.0 mi East 10.4 mph - N/A   Mostly Cloudy
6:47 PM 84.2 °F 90.9 °F 73.4 °F 70% 29.99 in 10.0 mi ESE 9.2 mph - N/A   Mostly Cloudy
8:15 PM 82.4 °F 88.2 °F 73.4 °F 74% 30.02 in 10.0 mi NNE 12.7 mph 17.3 mph N/A Thunderstorm Overcast
8:35 PM 78.8 °F - 71.6 °F 78% 30.03 in 10.0 mi NNE 10.4 mph - N/A Thunderstorm Overcast
8:55 PM 78.8 °F - 73.4 °F 83% 30.04 in 7.0 mi NNE 5.8 mph - N/A Thunderstorm Overcast
9:35 PM 73.4 °F - 71.6 °F 94% 30.08 in 4.0 mi North 15.0 mph 25.3 mph 0.07 in Rain , Thunderstorm Heavy Thunderstorms and Rain
9:55 PM 71.6 °F - 69.8 °F 94% 30.07 in 0.8 mi NE 13.8 mph 19.6 mph 0.94 in Rain , Thunderstorm Heavy Thunderstorms and Rain
10:15 PM 71.6 °F - 69.8 °F 94% 30.08 in 7.0 mi NE 10.4 mph - 0.01 in Rain , Thunderstorm Thunderstorms and Rain
10:35 PM 71.6 °F - 69.8 °F 94% 30.08 in 7.0 mi East 5.8 mph - 0.03 in Rain , Thunderstorm Light Thunderstorms and Rain
10:55 PM 73.4 °F - 71.6 °F 94% 30.08 in 7.0 mi SE 5.8 mph - 0.04 in Rain , Thunderstorm Light Thunderstorms and Rain
11:15 PM 73.4 °F - 71.6 °F 94% 30.09 in 10.0 mi ESE 4.6 mph - 0.01 in   Light Drizzle
11:35 PM 73.4 °F - 71.6 °F 94% 30.08 in 10.0 mi SSE 5.8 mph - 0.01 in Thunderstorm Clear
11:55 PM 73.4 °F - 71.6 °F 94% 30.08 in 10.0 mi SSE 8.1 mph - 0.01 in Thunderstorm Clear